RH
83 85 85 82 81 84 86 86 86 84 83 84 82 85 86 75 70 70 72 75 79 79 74 68 66 61 52 44 39 43 39 43 51 45 44 41 39 43 46 51 42 31 26 21 19 18 16 15 15 15 14 14 15 16 17 17 18 19 19 20 22 24 31 38 41 41 42 40 38 37 36 33 25 19 18 16 15 15 17 19 19 17 15 17 18 18 16 13 12 11 16 23 27 34 40 36 28
82 83 83 82 84 85 86 87 86 84 81 82 79 78 77 72 72 70 73 78 78 77 76 70 65 55 43 36 30 32 31 30 34 31 28 30 40 41 41 43 34 27 23 18 15 15 15 15 15 14 14 15 15 16 18 19 20 22 23 24 24 24 31 38 40 40 40 39 38 37 36 34 28 21 20 18 18 19 20 22 21 19 18 21 23 23 23 21 19 16 18 27 30 33 40 39 30
78 80 79 80 87 86 83 88 88 82 84 84 75 73 72 72 71 68 72 75 73 76 75 65 56 47 38 33 31 31 28 23 21 20 20 25 34 38 39 36 29 25 20 15 14 14 15 14 14 14 14 15 16 16 18 19 21 21 21 23 24 24 29 35 38 39 38 37 36 36 35 32 27 21 20 20 20 21 22 24 23 24 23 23 25 25 25 25 25 23 24 31 34 34 39 40 33
77 77 76 77 84 86 83 90 88 81 88 84 72 73 73 72 69 67 70 69 69 72 65 55 48 42 36 33 32 30 26 24 22 20 20 22 25 31 36 30 27 24 16 14 13 14 15 14 14 14 15 16 16 16 17 18 19 19 19 22 24 25 28 32 36 36 35 34 34 34 33 30 27 22 21 23 25 25 25 25 26 28 29 27 25 25 25 26 27 28 31 36 38 38 41 43 39
83 80 77 79 82 85 86 87 82 81 88 79 71 75 73 70 67 65 67 65 65 65 57 48 42 38 36 34 32 29 26 25 22 20 20 22 22 24 30 27 25 21 15 13 13 14 14 15 14 14 16 16 17 17 17 17 18 18 19 23 25 26 28 30 32 33 32 31 31 30 30 30 28 25 25 28 29 29 27 28 31 33 35 34 29 26 25 26 28 32 38 41 41 42 44 47 48
89 89 86 86 82 82 86 83 77 81 83 77 75 74 71 69 66 65 66 64 60 57 50 45 41 37 35 33 31 28 26 25 23 22 20 22 22 20 23 24 23 20 15 13 14 15 14 15 15 15 16 17 17 17 18 18 19 19 20 24 28 30 30 30 29 31 32 30 29 28 30 32 30 28 30 31 31 30 30 32 36 39 38 38 35 30 27 27 28 33 40 41 41 45 46 47 49
83 87 81 77 78 80 82 82 80 81 78 76 75 71 69 67 66 67 65 60 53 48 46 44 41 38 34 30 27 25 25 24 22 22 21 20 20 19 18 20 20 17 14 14 15 15 15 15 15 16 17 17 18 18 19 20 22 23 23 27 31 32 31 29 29 30 32 31 30 30 31 33 31 30 31 32 32 31 33 35 36 37 35 34 36 34 31 30 28 30 36 37 39 46 49 47 46
74 75 71 71 75 79 81 83 84 81 77 76 73 71 69 66 65 65 61 55 49 47 48 46 42 39 35 29 25 23 22 23 21 21 21 19 18 17 14 15 17 15 14 15 15 15 15 15 16 17 18 18 18 20 21 22 24 24 25 28 31 33 33 31 30 30 32 32 32 32 31 32 32 31 32 32 31 32 33 34 35 34 32 32 35 36 34 32 29 26 29 31 34 43 49 51 50
72 70 71 77 78 78 82 84 84 82 78 75 73 71 67 65 63 58 55 52 50 50 48 45 43 40 34 28 24 22 21 20 20 21 22 20 14 13 12 11 13 15 15 15 16 15 15 15 16 17 18 18 19 21 22 23 24 23 24 28 31 34 35 34 32 31 32 33 32 34 34 33 34 33 34 33 31 33 33 32 32 33 33 32 33 34 32 30 28 24 24 26 30 39 43 49 54
73 72 74 80 79 79 85 85 82 81 78 75 73 69 66 64 60 55 53 52 53 53 48 44 42 40 34 27 24 23 22 19 20 22 23 20 12 9 10 10 12 14 15 15 16 15 15 16 17 18 18 18 19 21 21 23 24 23 25 28 31 33 35 34 32 32 31 31 31 33 35 34 34 33 33 33 32 32 32 30 30 30 29 27 27 29 31 33 32 30 30 30 32 37 39 45 54
74 72 72 75 77 78 83 83 80 78 76 73 70 66 64 62 59 56 55 56 55 54 50 47 43 41 35 28 25 25 23 19 20 22 24 22 11 8 9 10 13 13 15 15 15 15 16 17 18 18 18 19 20 21 22 22 23 23 24 26 27 29 31 30 29 29 28 28 29 30 32 32 32 30 30 31 31 30 28 27 26 25 26 26 28 31 32 35 35 37 40 41 41 43 46 48 51
76 73 72 70 72 76 80 81 78 76 72 69 66 62 63 61 60 59 58 57 55 54 53 50 47 43 38 31 27 25 23 20 21 23 25 23 13 8 9 10 13 14 15 15 15 15 16 18 19 20 20 20 20 22 23 22 23 24 23 24 25 26 27 27 25 23 22 23 24 25 26 27 27 27 27 27 26 25 24 24 25 27 30 30 33 36 36 36 39 43 45 47 50 52 53 51 50
79 76 75 71 70 73 77 81 78 74 71 67 65 62 62 62 61 60 57 55 55 56 53 51 48 44 39 33 28 26 23 19 20 23 25 24 14 8 9 10 13 14 15 15 15 16 17 19 19 21 21 21 22 23 25 24 24 25 23 22 24 26 27 27 26 23 20 19 19 20 22 23 24 24 23 23 23 24 26 28 31 32 32 32 34 36 36 36 38 42 45 48 52 56 54 51 51
84 79 76 74 74 74 75 79 75 73 74 68 65 65 65 64 62 60 57 56 56 56 54 52 49 44 40 36 31 28 23 18 20 24 25 25 16 9 9 10 12 14 15 15 15 16 17 19 20 21 22 23 23 24 26 26 26 26 23 22 25 28 29 29 28 27 23 20 18 18 19 20 20 22 24 26 28 29 31 33 32 31 30 30 31 31 30 32 32 36 42 47 50 53 54 51 50
88 83 79 79 78 76 76 77 73 75 78 71 68 69 68 67 63 62 61 60 58 55 53 51 48 45 42 39 34 29 24 18 20 24 25 26 17 9 9 10 12 14 15 16 16 16 17 19 20 20 22 23 24 26 26 27 28 28 24 23 25 29 30 30 30 28 26 24 22 21 21 23 25 27 27 26 25 24 24 24 24 24 23 22 24 27 27 29 30 33 39 42 41 41 44 44 43
90 88 85 82 81 82 80 76 74 76 77 74 73 72 70 67 64 67 65 60 58 54 51 48 48 46 42 39 36 32 26 19 21 24 25 25 18 10 9 10 12 14 15 16 16 16 17 19 20 20 21 22 24 26 27 28 28 28 25 23 25 28 30 31 31 29 28 27 26 26 27 28 27 23 20 16 15 14 14 16 17 18 19 18 19 25 27 28 30 33 36 36 33 31 32 32 31
90 92 90 86 84 87 83 77 77 78 81 79 73 70 69 66 66 68 63 56 54 52 49 47 45 43 42 39 37 36 29 20 21 22 22 23 18 10 9 10 12 15 16 16 17 16 17 18 18 19 20 21 23 25 26 27 27 27 25 23 24 26 29 30 30 29 28 27 27 27 26 22 18 16 16 16 18 19 21 22 23 24 23 18 16 21 26 28 31 32 33 30 29 29 28 25 19
87 86 87 87 85 82 80 77 79 81 85 82 73 69 67 65 64 63 59 55 52 49 47 47 45 43 43 40 37 37 31 22 20 21 20 20 17 11 9 11 12 15 16 17 17 17 17 17 17 18 19 20 21 23 24 25 25 25 24 22 23 25 27 28 27 26 25 24 23 20 16 13 12 16 20 23 28 29 29 30 29 28 25 22 23 23 25 28 29 27 27 24 22 25 31 31 22
79 78 77 78 79 79 78 78 80 81 82 79 74 71 65 61 61 61 59 54 51 48 44 45 46 43 41 39 35 33 31 24 19 19 20 17 15 11 9 10 12 14 15 16 18 17 16 16 16 16 17 18 20 22 22 22 23 23 22 21 22 24 24 25 23 21 18 16 13 11 9 11 14 18 20 23 28 29 29 30 30 28 24 23 26 25 25 26 24 20 18 18 18 20 25 27 27
73 71 68 68 76 80 77 79 78 75 79 77 72 69 61 56 59 61 60 56 52 47 43 42 43 41 38 36 33 29 30 28 19 17 21 19 15 12 9 9 12 14 14 15 17 16 15 14 15 15 15 17 18 20 19 20 20 20 19 19 20 21 21 20 17 13 10 9 8 9 12 15 17 18 18 19 23 26 26 26 27 26 23 22 25 29 30 28 26 23 19 19 22 20 14 13 21
72 68 63 64 77 84 78 78 76 72 77 78 72 67 60 54 54 55 56 58 55 46 41 40 40 39 35 31 30 27 27 29 22 15 21 22 16 13 10 8 10 14 14 15 15 14 13 13 13 14 15 16 17 18 18 17 17 17 16 17 17 17 17 15 11 8 7 7 9 12 14 16 16 16 18 19 20 22 22 20 20 19 17 18 22 26 30 32 35 38 34 26 22 18 12 10 12
69 66 62 62 75 85 80 76 74 72 75 76 75 74 66 56 51 51 54 59 60 54 45 41 38 35 31 27 28 28 25 28 25 15 17 22 17 14 12 9 10 13 14 13 13 12 11 12 13 14 15 16 17 16 16 15 14 14 14 14 14 13 12 10 7 7 8 11 14 15 16 15 15 15 16 16 16 15 14 14 16 17 17 19 19 20 22 23 27 33 33 28 25 21 20 16 12
67 64 62 60 69 81 82 76 70 69 73 77 79 81 73 61 54 54 57 60 62 62 51 41 39 34 27 23 24 28 25 24 26 16 12 18 17 14 13 11 9 13 14 11 11 10 10 13 14 15 15 15 16 15 14 13 12 12 12 12 11 10 9 8 8 10 12 16 18 18 18 17 16 15 15 14 13 13 15 17 19 21 23 23 22 24 25 23 21 23 26 27 28 29 28 27 22
69 65 62 57 62 74 81 79 69 66 71 74 76 80 75 67 63 58 58 60 60 59 50 42 42 36 28 21 19 26 26 21 25 19 11 15 15 11 11 10 9 12 14 11 9 9 11 13 14 15 15 14 13 12 12 11 10 10 10 10 9 9 9 10 12 14 16 17 18 19 20 19 16 15 14 14 15 18 21 23 24 24 25 24 23 25 29 37 33 23 24 26 27 29 30 31 30
73 68 63 56 56 67 77 78 72 67 70 69 70 74 74 72 69 61 59 61 59 55 49 43 37 31 26 20 15 23 27 22 26 24 13 15 16 11 11 9 8 11 14 11 8 8 11 14 15 14 13 12 10 9 9 8 8 8 8 9 10 11 13 15 16 16 16 16 18 20 20 17 13 13 15 18 20 23 25 24 24 22 23 23 23 21 24 38 36 24 25 27 28 30 30 31 32
74 70 67 59 52 58 67 71 71 69 69 67 67 73 78 78 72 63 60 61 59 54 49 38 27 23 22 18 13 18 26 24 27 26 16 15 17 13 11 10 8 10 13 11 7 7 11 15 14 13 12 10 7 6 7 7 7 7 7 8 10 13 16 18 18 16 15 15 17 20 18 13 12 14 19 23 24 23 23 22 22 21 22 20 20 26 28 31 31 25 26 26 26 27 27 29 31
68 65 67 65 52 50 56 61 66 68 68 64 67 75 79 81 75 65 59 58 56 53 45 29 19 21 19 17 14 15 23 24 25 27 18 14 17 14 11 10 8 9 13 12 8 6 9 14 14 13 11 8 6 6 7 8 8 9 9 9 11 13 16 17 16 15 13 14 16 17 14 12 15 19 22 24 23 21 20 21 22 21 21 18 23 34 34 28 27 25 24 24 26 30 31 32 33
57 51 56 64 53 47 50 54 60 67 65 56 64 78 82 85 81 70 63 58 54 51 41 26 24 25 19 17 16 14 20 24 25 27 22 14 15 15 10 9 8 8 12 12 8 5 7 13 13 11 10 8 7 7 8 10 11 11 11 11 12 12 14 14 13 12 12 13 14 14 13 15 18 21 22 22 21 20 19 20 21 20 18 20 32 38 31 26 26 24 23 26 31 35 36 36 36
43 35 40 52 48 46 50 52 56 64 59 48 60 80 87 88 83 76 69 61 57 52 39 32 35 30 21 18 16 14 15 20 22 22 22 17 13 14 9 7 7 7 10 11 7 5 6 10 12 10 9 8 7 7 8 10 12 12 11 11 11 10 11 10 10 10 11 12 13 13 14 17 19 20 22 22 21 19 18 20 19 19 17 22 35 35 27 26 22 20 24 30 34 35 36 37 34
33 28 31 42 43 47 55 53 55 61 51 44 61 79 84 83 83 83 76 65 61 55 44 43 44 34 28 25 19 15 12 16 19 17 22 22 16 14 11 6 6 6 8 9 7 5 4 7 10 9 9 8 8 7 6 8 10 11 11 10 9 8 8 8 8 9 10 12 13 14 16 18 19 20 22 22 21 18 18 19 17 18 19 25 35 34 28 23 18 19 25 32 34 33 33 32 29
30 27 27 36 41 48 57 53 53 56 46 45 60 76 81 77 81 86 78 69 64 58 50 52 51 40 36 32 24 19 12 12 16 18 21 22 18 17 15 9 5 6 7 8 6 5 4 5 7 8 9 9 8 6 5 6 7 8 9 9 8 7 7 7 8 9 10 12 14 15 17 18 18 20 21 22 21 18 17 18 17 18 22 31 38 36 30 21 17 19 23 31 34 31 29 28 26
31 26 24 34 43 50 55 51 53 52 44 46 56 69 76 73 80 83 77 71 64 60 57 60 58 46 41 36 29 24 17 10 12 18 21 22 20 18 18 13 8 5 6 7 6 4 4 4 5 6 7 8 8 8 6 5 5 7 9 9 8 7 7 8 9 9 11 13 15 16 16 17 17 18 19 19 19 17 17 17 17 17 19 29 39 42 34 21 17 18 19 27 31 29 27 27 27
30 26 25 34 44 52 56 50 51 49 41 42 48 60 67 70 80 79 75 74 66 62 61 63 63 53 45 38 30 27 22 14 10 14 20 24 21 16 19 18 11 6 4 6 6 4 4 3 4 5 5 7 8 8 7 6 6 7 8 8 8 7 8 9 9 10 12 14 15 15 16 16 17 17 17 17 16 16 16 16 17 16 15 21 34 41 31 20 18 16 15 19 24 25 25 25 26
25 25 25 30 41 53 56 48 48 45 40 42 45 57 69 77 83 76 75 79 71 66 64 62 64 61 51 40 32 27 24 18 11 10 15 23 22 14 18 19 13 7 4 5 5 4 3 3 4 4 4 6 7 7 7 7 7 7 8 8 8 8 8 8 9 10 12 14 15 15 16 16 17 17 17 16 14 13 14 15 15 16 14 14 23 31 27 21 18 17 14 14 16 18 19 21 22
25 25 24 26 35 48 50 45 48 44 41 44 46 60 77 83 82 74 75 80 75 70 66 59 60 66 57 43 36 29 26 21 12 9 11 19 22 13 15 18 13 8 5 4 4 4 3 3 4 4 4 5 6 6 7 7 8 8 8 8 8 8 8 8 9 11 12 14 15 15 16 17 18 17 16 15 13 12 12 13 14 14 14 13 15 22 27 24 19 17 16 14 13 13 13 13 16
30 28 26 25 32 45 46 42 45 43 39 41 44 59 74 78 79 77 78 84 81 75 67 58 58 67 62 49 41 33 30 26 15 9 9 15 21 15 13 18 14 8 5 5 4 4 3 3 4 4 4 4 5 6 6 8 8 9 9 8 8 7 8 8 9 11 13 13 14 15 16 17 17 17 15 14 11 11 11 12 13 13 14 15 16 18 19 19 18 17 16 15 15 13 11 9 10
27 28 27 27 30 39 46 44 44 45 45 42 42 49 57 65 78 86 90 90 85 78 69 62 62 67 65 56 47 38 36 34 20 11 8 11 17 16 12 16 16 9 5 5 4 4 4 3 3 4 4 4 5 5 6 7 8 9 9 8 7 7 7 7 8 11 12 13 14 14 15 16 17 16 15 13 11 10 11 11 11 13 14 16 21 21 16 15 16 17 17 16 16 14 12 10 9
17 24 27 31 31 34 42 42 38 42 45 45 47 47 46 51 64 80 90 92 88 84 76 69 67 68 68 63 52 43 42 39 25 13 10 9 12 15 13 14 17 12 6 5 4 4 4 4 4 4 4 4 5 5 5 7 7 8 7 6 6 6 7 6 8 11 12 13 13 13 14 15 15 15 13 12 10 9 10 10 10 12 13 13 17 19 15 14 15 16 16 16 15 15 14 12 10
7 15 24 31 35 37 39 33 29 33 35 38 45 48 50 50 53 64 76 88 94 90 83 79 74 69 68 67 58 49 46 39 26 16 13 11 8 10 11 14 18 14 8 5 4 4 4 4 4 4 4 4 4 5 6 6 7 6 6 6 6 6 6 6 7 11 12 12 12 12 13 13 13 13 12 10 9 9 9 9 9 10 12 11 11 13 13 12 13 15 15 13 13 14 13 12 11
3 7 14 23 32 38 39 32 31 35 30 31 36 40 49 54 54 54 56 74 93 96 91 86 79 70 64 63 57 48 44 38 26 18 15 12 8 7 9 12 16 16 10 5 4 4 4 4 4 4 4 4 4 5 6 7 7 6 5 6 6 6 6 6 7 10 11 11 11 11 11 11 10 10 10 9 8 8 8 9 9 9 10 10 9 11 11 11 14 17 14 12 11 12 12 12 11
2 3 5 13 22 30 40 37 34 35 28 26 29 30 38 49 53 47 43 59 82 96 97 89 81 73 62 57 54 46 43 38 28 19 14 12 9 7 7 10 13 15 10 6 5 4 4 4 4 5 4 4 5 5 7 7 6 6 6 6 6 7 7 6 8 9 10 10 10 10 10 9 8 8 8 8 8 7 7 8 8 8 9 9 9 9 10 12 18 20 14 10 10 10 10 10 10
3 3 2 7 11 19 34 37 31 32 27 23 26 27 29 38 43 40 40 50 68 87 97 91 83 76 64 59 58 52 46 41 33 24 15 9 8 6 5 9 11 13 10 7 7 5 5 4 4 4 4 4 5 6 7 7 7 6 6 7 7 7 8 7 7 8 9 9 9 9 10 9 8 7 7 7 8 7 7 7 7 8 8 8 8 8 9 11 16 17 11 8 9 8 9 9 8
3 2 2 4 5 10 22 31 31 32 39 38 29 24 25 30 37 39 38 43 57 78 93 94 86 77 68 62 61 56 50 46 39 30 21 12 10 7 5 7 10 11 9 8 8 7 5 5 4 4 4 4 4 6 7 6 7 7 6 7 8 7 7 6 6 7 7 8 9 9 9 9 8 7 7 7 7 6 6 6 6 7 7 8 8 8 8 8 12 14 9 7 8 7 7 8 7
5 3 3 3 3 5 11 23 28 30 46 49 26 15 20 23 32 40 37 37 52 71 85 92 88 78 69 63 61 60 55 51 45 35 28 20 15 11 6 6 9 11 8 7 9 9 6 5 5 4 4 3 4 6 7 6 6 6 6 7 8 7 6 5 5 6 7 7 9 9 8 8 8 7 7 6 6 5 5 5 5 6 7 7 7 7 8 7 9 12 10 10 9 7 6 6 7
9 5 3 3 3 4 5 14 23 27 38 37 19 13 17 17 25 36 35 32 46 66 76 85 87 79 71 65 63 63 59 56 50 40 32 24 18 15 11 7 7 9 9 7 8 9 7 5 5 4 4 4 5 7 7 6 6 6 6 6 7 7 6 5 5 6 8 8 8 8 8 7 7 7 6 5 5 5 4 5 4 5 5 6 7 7 8 8 7 9 9 10 10 8 6 6 6
12 8 4 4 3 4 4 5 12 22 26 20 15 15 13 12 19 29 32 30 41 62 71 77 83 80 74 69 66 66 63 59 54 46 36 28 22 17 13 9 7 8 10 8 7 8 8 6 5 5 5 5 5 7 7 5 6 6 5 6 6 7 7 6 6 7 8 8 8 8 8 7 7 7 7 6 6 5 5 5 4 4 4 5 6 6 7 7 7 8 8 8 9 9 8 7 6
16 10 7 7 5 3 5 3 5 12 12 8 11 16 12 8 13 24 31 30 36 54 65 70 78 81 77 74 69 66 64 61 56 50 41 33 26 21 17 14 10 8 9 9 7 7 8 7 5 5 5 6 6 7 6 5 5 6 5 6 5 6 7 7 6 7 8 8 8 8 8 8 7 7 7 7 7 7 7 7 6 6 5 5 5 5 6 6 7 8 8 7 8 8 9 9 9
20 12 9 10 8 4 4 3 4 5 5 4 7 13 12 5 8 18 27 30 32 42 56 67 76 81 80 76 72 67 66 63 56 51 46 38 31 27 26 24 18 12 9 9 8 6 7 7 7 6 5 6 7 7 6 4 5 6 5 6 6 6 7 7 7 7 7 8 7 7 8 8 8 8 8 8 8 9 9 9 8 7 7 6 6 5 5 5 6 7 7 8 8 8 9 9 10
23 15 11 12 10 7 5 4 4 2 2 3 4 7 8 3 4 13 21 27 29 35 51 64 74 82 82 78 75 70 67 63 57 52 48 43 37 34 34 32 28 23 14 10 9 9 7 6 7 7 6 7 8 7 6 5 4 5 5 5 6 6 6 7 8 7 7 7 6 7 8 8 8 8 8 8 10 11 12 12 11 11 10 9 8 8 7 6 6 6 5 6 6 7 8 10 11
26 19 13 13 12 8 4 3 3 3 2 3 3 5 5 1 2 9 15 21 25 31 42 53 67 78 81 79 78 73 67 63 57 52 49 46 42 39 37 35 32 29 21 13 10 10 9 6 5 7 7 7 7 7 6 5 5 4 5 5 5 6 6 7 7 7 7 7 6 7 8 9 8 8 8 9 11 13 13 13 13 13 13 13 13 12 12 12 11 10 10 9 7 6 6 8 9
33 26 17 14 14 10 6 4 3 2 2 3 3 3 3 2 2 5 9 15 20 27 34 44 60 72 78 80 77 73 68 63 57 53 52 51 48 43 40 36 33 29 25 19 11 10 11 9 5 5 7 7 7 8 7 6 5 4 4 4 5 6 6 7 7 7 7 7 6 6 8 9 8 8 10 11 13 13 13 13 12 12 13 13 14 15 15 15 16 16 16 16 15 13 11 10 9
39 34 28 19 14 12 8 5 5 3 2 3 3 2 2 2 2 2 6 11 17 23 30 40 53 64 72 74 71 70 69 65 60 55 55 55 53 50 45 40 35 30 26 23 15 10 11 12 8 4 5 7 8 8 7 7 6 5 5 4 4 6 6 6 7 8 8 8 7 6 6 8 9 10 11 12 13 14 13 13 12 11 11 11 11 12 12 14 15 16 16 17 18 18 18 17 15
47 42 33 24 17 15 12 7 5 3 2 2 2 2 2 2 2 1 3 8 13 19 26 34 44 55 63 61 59 66 70 67 63 58 57 57 56 57 53 47 41 35 30 26 21 14 10 11 11 6 4 5 7 8 7 7 6 5 5 4 4 5 6 6 7 8 8 8 7 6 6 8 10 11 12 13 14 13 12 12 11 10 10 9 9 9 10 10 11 12 14 15 17 19 21 21 20
54 54 43 33 23 16 13 10 7 4 3 3 2 2 2 2 2 1 2 7 11 14 20 29 38 48 53 49 48 60 67 68 67 63 59 58 58 59 59 54 48 43 38 32 26 19 11 9 11 9 5 4 5 7 7 6 6 6 5 4 4 4 5 6 7 7 7 8 8 7 6 7 10 12 13 13 13 12 11 10 9 9 9 8 8 8 8 9 8 10 11 12 15 19 23 23 23
48 61 58 44 31 22 16 11 8 4 2 3 3 3 2 1 2 1 1 7 12 12 15 24 32 40 45 43 43 55 65 68 69 67 64 61 61 61 61 58 53 49 44 38 31 24 15 9 9 10 8 5 4 5 6 6 6 6 5 4 4 4 4 5 6 7 7 7 8 7 6 7 9 12 12 12 12 11 10 10 9 8 8 7 7 7 7 7 7 8 8 9 11 15 18 20 22
35 53 62 51 38 32 23 13 9 6 3 3 3 3 2 1 2 2 1 4 11 14 14 17 24 32 37 38 43 53 63 68 70 70 70 67 65 64 62 60 57 54 51 45 37 30 22 13 8 9 10 6 4 4 5 6 5 5 5 5 4 4 3 4 5 6 7 7 8 8 7 6 8 10 10 10 11 10 10 9 9 8 7 7 7 6 6 6 7 7 6 7 8 10 12 14 17
31 41 51 49 44 41 33 21 13 8 5 5 5 3 2 2 1 2 1 2 7 13 14 13 17 23 28 37 48 56 61 65 69 71 72 69 63 61 62 62 61 57 54 50 43 35 28 20 11 8 10 9 6 4 4 4 4 5 5 5 5 4 3 3 4 5 7 7 7 8 7 6 7 8 8 9 9 10 10 9 8 8 7 7 7 6 6 6 6 6 6 6 7 7 9 10 11
39 45 45 45 52 52 38 23 15 11 7 6 7 5 2 3 2 1 2 1 3 9 13 14 15 19 25 38 54 61 62 63 66 69 69 65 60 58 60 63 63 58 54 53 49 40 32 27 19 10 8 10 9 7 5 4 4 4 4 4 5 5 4 3 3 5 6 7 7 8 7 7 6 7 8 8 8 9 9 8 8 7 7 7 7 6 6 6 6 6 6 6 7 7 8 9 10
Wind_Speed
11 11 10 10 10 11 12 12 11 11 12 12 13 14 15 16 13 13 12 12 11 10 10 12 11 8 8 8 9 8 6 6 8 9 9 9 8 7 8 8 7 6 7 8 10 11 12 12 11 11 11 11 12 12 12 12 12 12 13 14 15 16 16 17 17 18 18 18 18 17 17 17 17 17 16 16 16 15 14 13 12 12 11 11 11 11 10 9 8 8 7 7 6 8 9 9 9
12 12 11 10 12 12 13 13 12 12 12 13 14 15 15 15 13 13 12 12 11 10 10 11 10 8 8 8 8 8 6 6 7 7 8 9 10 8 8 9 7 7 7 8 10 11 11 12 11 11 11 11 12 12 13 12 13 13 13 14 15 16 17 17 17 18 17 17 17 17 16 16 16 16 16 15 15 14 13 12 11 11 11 10 11 11 10 9 9 9 8 8 7 8 9 9 10
13 12 11 10 11 11 12 13 12 13 14 13 14 15 14 14 13 12 12 11 10 10 10 10 10 9 9 9 8 7 6 6 5 6 7 9 11 9 9 9 8 7 7 8 10 11 11 11 11 12 12 12 13 13 13 13 13 13 13 14 15 16 16 17 17 17 17 17 16 16 16 16 15 15 15 14 13 12 12 11 11 10 10 9 9 9 9 8 8 9 9 8 8 8 9 9 9
14 12 11 11 11 10 11 12 12 15 16 15 15 14 13 13 12 12 12 11 10 10 9 10 10 9 9 8 8 7 6 6 6 5 6 8 10 11 10 9 9 7 7 8 10 11 11 11 12 12 12 13 13 12 13 13 13 13 13 14 15 16 16 16 16 17 16 16 15 15 15 15 15 15 14 13 12 11 11 10 10 9 9 8 8 8 7 6 7 7 8 8 8 9 9 9 9
14 11 11 11 10 10 11 13 15 16 16 16 15 13 12 12 11 11 11 10 10 10 9 9 9 9 8 8 8 7 7 7 6 5 6 8 9 11 12 10 9 7 7 9 10 11 11 12 12 12 13 13 12 12 13 13 14 13 13 14 15 15 15 15 16 16 15 15 14 14 14 14 15 14 13 12 11 10 10 9 9 8 8 7 6 6 6 5 6 6 7 8 8 8 9 9 9
11 9 10 10 10 11 12 14 16 16 16 15 13 12 12 11 10 10 11 11 10 10 9 8 8 8 8 9 8 8 8 7 7 5 5 8 9 10 12 11 10 8 8 9 10 11 12 12 12 13 13 13 12 12 13 13 13 13 13 14 14 15 15 14 15 15 14 14 14 13 13 14 14 14 12 12 10 9 8 8 7 7 7 6 5 5 4 4 4 5 6 7 7 8 8 8 9
10 10 11 12 13 14 14 15 15 16 15 13 12 11 10 10 10 10 10 10 9 9 8 8 7 7 8 8 9 9 9 8 8 6 4 8 10 10 12 12 11 9 9 10 10 11 12 12 13 13 13 12 12 12 12 13 13 13 13 13 13 14 14 14 14 14 13 13 13 13 12 12 13 13 12 11 10 8 7 6 6 6 6 5 4 3 3 3 3 4 5 5 6 7 7 7 7
10 11 12 14 15 15 15 15 15 14 13 12 11 10 10 10 9 9 9 9 9 9 9 8 7 7 7 8 9 10 10 9 8 7 4 6 10 10 11 12 11 10 10 10 11 12 13 13 13 13 12 12 12 12 12 13 13 12 12 12 13 13 14 14 13 13 13 12 12 12 11 11 12 12 11 11 9 8 6 5 5 5 5 4 3 3 3 3 3 3 4 4 4 5 6 5 5
10 12 13 14 15 16 15 15 14 13 12 11 11 10 10 10 9 9 9 8 8 8 8 8 8 7 7 8 10 11 11 10 9 8 6 6 9 10 10 11 12 12 11 11 12 12 13 13 13 13 12 12 12 13 13 13 13 12 12 12 12 13 13 13 13 12 12 12 12 12 11 11 11 10 10 10 9 7 6 4 4 4 4 3 3 3 3 3 3 4 3 3 4 4 4 4 4
12 12 13 15 16 16 15 14 13 13 12 11 10 10 9 9 8 8 7 7 7 6 6 7 7 6 7 9 9 10 11 10 10 10 7 6 8 10 10 10 11 12 13 12 12 13 14 13 14 13 12 13 12 12 13 13 13 12 12 12 12 12 12 12 12 12 12 11 11 11 11 10 10 9 8 8 7 5 4 4 3 3 3 3 3 3 3 4 5 5 4 4 4 3 2 3 4
13 14 14 15 16 15 14 13 12 12 11 10 10 9 8 8 7 7 6 6 5 5 5 5 6 6 6 8 8 9 10 11 10 10 9 6 7 10 10 10 11 12 13 13 13 13 13 13 13 13 13 13 12 12 12 13 13 12 11 12 12 12 11 11 11 11 11 11 11 11 11 10 9 8 7 7 6 5 4 3 2 3 4 4 4 4 4 5 6 6 5 5 4 4 3 3 4
14 14 14 14 15 15 14 13 11 11 10 9 8 8 7 7 7 6 6 5 5 5 5 4 4 5 5 6 7 7 9 11 11 11 9 7 7 9 9 10 11 11 11 13 13 13 13 13 13 13 13 13 13 12 12 12 13 12 12 11 11 11 11 10 10 10 10 10 10 10 10 10 9 8 7 6 5 5 4 3 3 4 5 5 6 7 6 6 7 6 5 5 5 5 5 5 5
14 13 13 13 14 15 14 13 11 10 9 9 8 7 7 7 6 6 6 5 5 5 5 5 4 5 5 5 5 5 7 10 12 11 10 8 7 8 9 10 12 11 11 11 12 12 12 12 12 13 13 13 13 12 11 12 12 12 12 11 11 11 11 10 10 9 9 9 9 9 9 9 9 8 7 6 6 5 5 5 5 6 6 7 8 9 8 7 8 7 7 7 6 6 6 6 6
14 13 13 13 15 15 15 14 12 11 9 8 8 8 7 7 7 6 5 5 6 6 6 5 5 5 6 5 4 4 6 9 11 12 11 9 8 8 8 9 11 11 10 10 11 11 11 11 11 12 13 13 13 12 11 11 12 12 12 11 11 11 11 10 10 10 10 10 10 10 10 10 9 9 8 8 7 7 7 7 8 8 8 9 9 9 9 9 9 8 8 8 8 7 7 7 7
14 14 13 14 15 16 15 14 13 12 10 9 9 9 8 8 7 7 6 5 5 6 5 5 5 6 7 6 4 2 4 7 10 13 12 9 8 8 8 9 11 12 11 10 10 10 10 11 11 12 13 13 13 12 12 11 11 11 12 11 11 11 11 10 10 10 10 11 11 11 11 11 10 10 10 9 9 9 9 9 10 10 10 10 10 10 10 10 10 9 9 9 10 9 9 8 8
16 15 15 15 16 15 15 14 13 12 10 10 10 10 10 9 8 8 8 7 6 6 5 5 6 6 7 8 6 2 2 5 9 13 13 11 9 9 9 9 11 11 11 10 9 9 10 10 11 11 12 12 12 12 12 11 11 11 11 12 11 11 11 11 11 11 11 11 11 11 11 11 11 11 11 11 11 10 10 10 10 10 10 10 10 10 10 10 9 9 9 9 10 10 10 9 9
16 16 15 15 15 15 14 13 12 11 9 9 11 11 10 9 9 9 8 7 7 6 5 5 5 7 7 8 8 4 1 4 7 12 13 12 10 10 10 10 11 12 11 10 9 9 9 10 10 11 12 12 12 12 12 12 11 11 11 11 12 11 11 11 11 11 11 11 11 11 12 12 12 12 12 11 11 10 10 9 10 10 10 11 11 11 10 10 9 9 8 9 9 10 10 10 10
16 15 15 14 14 13 13 13 12 11 9 10 10 9 9 8 8 7 6 5 5 5 5 5 5 6 7 7 8 7 3 3 6 10 13 13 11 10 11 11 11 12 12 11 10 9 9 9 10 11 12 12 12 12 12 12 12 11 11 12 12 12 11 11 11 10 10 11 12 12 13 13 12 12 11 11 11 10 10 9 9 9 10 11 11 11 10 9 8 8 8 8 8 9 10 10 10
16 15 14 14 13 12 13 13 12 11 10 10 10 9 9 8 6 5 4 4 5 5 5 5 5 5 6 6 7 9 6 4 5 9 12 13 11 11 11 11 12 12 13 12 11 9 9 10 11 12 13 13 13 12 13 13 12 12 12 12 12 12 12 11 11 11 12 13 13 13 13 13 12 12 11 11 10 10 9 9 8 8 8 9 10 10 10 8 8 7 7 7 7 7 8 10 10
16 15 14 14 12 12 14 14 13 11 10 10 10 9 8 7 7 6 5 5 5 5 4 4 4 3 4 5 6 9 9 5 5 9 12 12 11 10 10 11 13 13 13 13 12 11 10 11 12 12 13 13 13 13 13 13 13 13 13 13 13 13 12 11 11 12 13 13 14 13 13 13 12 12 11 11 10 9 8 8 7 7 7 7 8 9 10 9 8 7 7 7 6 6 7 8 9
18 17 15 14 13 12 14 14 13 12 11 11 10 9 7 7 7 7 6 6 5 5 4 3 3 2 2 3 5 8 11 9 7 10 13 13 11 10 9 9 11 13 13 13 13 12 12 12 13 14 14 14 14 14 14 14 14 14 14 14 14 13 13 12 12 13 13 14 14 14 13 12 11 11 10 10 9 9 8 7 7 7 7 7 7 8 9 9 9 8 8 8 7 7 7 7 8
19 18 16 15 14 14 14 15 14 12 12 13 11 8 7 8 8 7 7 7 7 6 5 4 3 4 3 4 4 6 10 11 9 11 14 14 13 12 10 9 11 12 13 13 14 13 13 14 14 15 15 15 14 14 14 14 15 15 15 14 14 14 13 13 13 13 13 14 14 13 12 11 10 10 9 9 9 8 8 8 8 8 8 8 7 7 8 8 8 8 8 8 8 7 7 7 8
21 19 18 17 16 16 15 15 15 14 13 13 11 9 8 8 9 8 8 8 8 8 7 5 5 4 5 6 6 6 9 12 12 11 14 16 15 14 13 12 12 13 13 13 14 14 15 15 15 16 16 16 15 15 15 15 16 16 15 15 14 14 13 13 13 13 13 13 13 12 11 10 10 9 8 8 9 9 10 9 9 9 8 8 7 7 7 7 7 7 7 7 7 7 7 7 7
23 21 20 18 18 18 17 15 15 14 13 13 12 11 9 9 10 9 9 9 8 8 7 6 5 4 5 7 8 6 7 10 12 10 12 15 15 15 14 13 13 13 14 14 14 15 16 16 17 16 16 16 16 16 15 15 16 16 15 15 15 14 14 13 13 13 13 12 12 11 10 9 9 9 9 9 10 10 10 9 9 9 8 8 7 7 7 7 7 7 6 6 6 6 6 6 6
24 23 22 20 20 19 18 16 15 14 13 14 13 11 9 8 10 10 9 9 9 9 8 6 5 6 6 7 9 9 7 9 11 10 11 13 13 14 13 13 14 14 15 15 15 15 16 17 17 17 17 17 17 17 16 16 16 16 15 15 14 14 13 13 13 12 12 11 11 10 9 9 9 10 10 10 10 10 9 9 9 9 9 8 8 7 7 7 8 8 7 7 6 6 6 6 6
27 27 25 23 21 20 19 18 16 15 15 15 14 11 9 8 9 11 9 9 10 9 8 7 7 7 7 7 9 10 10 12 13 13 14 15 15 15 14 14 15 15 15 15 16 16 17 17 17 17 17 17 17 17 17 16 16 16 15 14 14 13 13 12 12 11 11 11 10 9 9 9 10 11 11 10 9 9 9 9 9 9 9 9 9 8 8 9 9 8 7 7 6 6 6 6 6
30 29 26 24 21 20 20 18 17 16 17 16 14 12 10 7 8 11 11 9 9 9 9 9 8 8 7 8 8 10 11 12 13 14 15 16 17 17 16 16 15 16 16 16 16 17 18 18 18 18 17 17 17 17 17 16 16 16 15 14 13 12 11 11 10 10 10 10 10 9 10 11 12 12 11 10 9 9 9 9 10 10 10 9 9 9 10 11 10 8 8 7 7 7 7 7 7
31 30 28 26 23 21 22 20 18 18 19 18 16 14 10 7 8 11 11 10 10 9 10 10 9 8 8 8 9 11 12 11 12 14 15 16 18 19 18 18 17 17 17 17 17 18 18 18 18 18 18 18 17 17 16 16 15 15 15 13 12 11 10 9 9 9 10 10 10 10 11 12 12 12 11 10 10 9 9 10 10 10 9 9 9 10 12 11 10 9 9 9 9 10 10 10 10
32 30 28 27 24 22 23 23 21 20 21 19 18 15 12 10 10 10 11 11 10 10 11 10 8 8 8 9 9 10 12 13 13 13 13 14 17 19 19 20 20 19 19 18 19 19 19 19 18 18 18 17 17 17 16 16 15 14 14 13 12 11 9 8 9 9 10 10 11 11 12 12 12 12 11 11 10 10 9 10 10 10 9 9 11 13 13 11 10 10 11 11 12 13 13 12 13
31 29 27 27 26 24 24 24 22 22 22 21 19 17 16 16 13 11 11 12 12 12 12 10 9 9 9 9 9 10 11 13 13 12 13 14 15 16 18 19 20 20 19 19 19 19 19 19 19 18 18 18 17 17 16 16 15 14 14 13 12 11 9 9 9 10 10 11 12 13 13 12 12 12 11 11 10 10 10 10 10 10 10 10 13 14 13 12 12 13 13 14 15 15 15 15 16
31 29 29 28 27 26 26 25 24 23 23 22 21 18 18 18 14 13 13 13 14 13 13 11 10 10 9 9 10 10 11 12 13 13 14 15 15 15 16 17 18 19 20 20 21 21 20 20 19 19 18 18 18 17 16 16 15 15 14 13 12 11 10 10 10 10 11 12 13 13 13 12 11 11 11 10 10 10 10 10 9 10 10 10 13 14 13 13 14 14 15 16 16 17 17 16 17
31 30 28 28 28 27 27 26 25 25 25 23 21 20 20 19 16 17 16 16 15 14 13 11 10 10 9 9 10 10 10 11 13 14 14 15 16 18 18 17 17 20 21 21 22 22 22 21 20 19 19 18 18 17 17 16 16 15 14 13 12 11 10 10 11 11 12 12 13 13 12 12 11 11 11 10 10 10 10 10 9 9 9 9 10 12 13 15 15 16 16 17 17 17 17 17 17
32 29 27 27 28 27 26 27 26 26 26 23 20 21 22 20 19 19 17 17 17 15 15 13 12 11 10 9 10 10 10 11 13 15 14 15 17 20 20 19 19 20 21 21 22 22 23 22 21 20 19 18 18 18 17 16 16 15 15 13 12 11 11 11 11 12 12 13 12 12 12 11 10 10 10 10 10 10 9 9 9 9 9 10 11 12 14 16 16 16 17 17 17 17 17 17 17
30 29 27 27 28 28 27 28 28 28 27 24 21 22 21 18 19 19 17 17 17 17 16 15 14 13 11 10 10 10 11 11 13 15 16 17 18 20 21 21 20 20 20 22 23 23 23 23 22 21 19 18 17 17 17 16 15 15 15 14 13 12 12 12 12 13 13 13 12 12 11 11 10 10 10 10 10 10 10 9 9 8 9 10 13 15 16 16 16 16 17 17 17 16 16 16 16
32 31 28 26 27 30 30 28 29 29 27 25 23 23 22 19 20 20 18 17 18 19 19 17 17 16 14 12 12 11 11 11 12 15 17 18 19 19 20 21 21 21 21 21 22 23 23 23 22 21 20 19 18 17 16 15 15 15 15 15 14 14 13 13 13 13 13 13 12 11 11 10 10 9 10 10 10 11 11 11 10 10 9 11 12 14 15 15 14 15 16 16 16 16 16 16 16
37 33 30 27 26 29 32 30 29 29 28 25 23 25 25 23 20 18 17 18 19 20 20 18 17 17 15 13 13 12 12 12 12 14 16 18 20 19 20 21 21 21 22 22 22 22 22 22 21 21 20 19 18 17 16 16 15 15 15 16 16 15 15 14 14 14 13 13 12 11 11 10 10 10 10 10 11 11 11 12 12 12 11 12 12 12 12 13 13 13 13 14 14 15 15 16 16
38 34 33 31 28 30 32 31 30 29 28 26 25 27 28 25 21 19 19 20 21 21 20 18 17 17 17 15 14 13 12 12 12 13 15 17 19 20 20 21 21 21 22 22 22 21 22 22 21 21 20 19 19 18 18 17 17 17 16 17 16 16 15 15 15 14 14 13 13 12 11 10 10 10 10 11 11 11 12 12 13 13 13 13 13 12 11 11 11 10 11 11 12 13 13 14 15
38 37 36 34 32 32 33 35 32 30 29 27 27 29 29 27 25 24 23 23 22 22 21 20 19 19 19 18 16 14 12 11 12 13 14 16 18 19 20 20 20 20 22 23 23 22 22 23 22 22 21 20 20 19 19 19 19 18 17 16 15 15 15 15 15 15 14 14 13 12 11 11 11 10 11 11 11 11 11 12 13 14 14 13 13 13 12 11 11 10 10 10 10 11 11 12 13
39 40 39 37 36 35 36 37 32 30 31 29 29 30 30 30 29 29 28 26 25 24 24 23 22 22 21 20 18 16 14 13 14 14 14 16 18 19 20 20 20 21 22 24 25 24 23 24 23 22 21 21 21 20 20 20 18 17 15 14 13 13 13 13 14 14 14 14 13 13 12 12 11 11 11 11 11 11 11 12 13 14 14 13 14 13 12 12 12 11 11 10 10 10 10 10 11
42 43 43 41 39 38 38 37 34 33 33 32 32 32 33 33 32 33 32 30 28 26 27 27 26 25 23 22 20 18 18 17 16 16 16 16 18 19 20 21 22 22 22 23 24 24 24 24 24 24 23 23 22 21 20 19 17 15 14 13 12 11 11 12 13 14 14 14 14 13 13 12 12 12 12 12 12 11 11 12 12 13 14 13 13 13 12 12 12 11 11 11 10 10 10 9 10
43 45 45 43 42 40 38 39 38 36 36 34 33 34 35 35 35 34 33 32 31 29 29 28 27 27 25 23 21 19 19 18 18 18 18 18 19 20 21 22 23 22 22 22 23 24 25 25 25 26 26 24 23 22 20 17 15 14 14 13 13 12 12 12 14 14 15 15 14 14 13 13 13 13 13 12 12 11 11 12 12 13 13 13 13 12 12 11 11 11 11 11 11 10 10 9 9
41 44 44 44 44 41 40 42 40 36 36 34 34 36 36 37 38 36 35 35 34 32 31 30 29 29 27 24 22 20 19 19 18 18 18 19 20 21 22 22 23 23 23 23 24 26 27 27 28 28 27 26 24 22 19 17 16 15 15 15 15 15 15 16 16 16 15 15 14 14 13 13 13 13 13 13 13 12 11 12 12 12 12 12 12 11 11 11 10 10 11 11 10 10 10 9 9
41 42 43 45 46 44 41 41 39 37 36 36 40 41 36 37 39 38 38 38 36 34 33 32 32 31 28 26 24 22 21 20 19 18 17 17 18 19 21 23 24 24 25 25 25 26 27 28 29 29 28 27 25 22 19 17 17 17 17 18 18 19 19 19 18 16 14 14 14 13 13 12 12 12 13 13 13 12 12 12 12 12 12 12 11 11 10 10 10 10 10 10 10 10 10 9 9
41 41 43 45 46 45 42 41 41 40 38 42 46 41 36 39 40 39 41 40 39 37 36 35 35 33 30 28 27 24 23 22 20 18 18 18 18 19 21 23 25 26 26 26 26 26 27 28 29 29 29 28 25 22 20 19 19 20 20 20 20 20 19 17 16 14 13 13 13 13 12 12 12 12 12 13 13 12 12 12 12 12 12 12 11 11 10 10 9 9 9 9 10 10 10 10 10
41 42 44 42 43 44 44 45 45 43 44 49 47 40 39 41 40 41 44 43 42 40 37 37 36 34 31 30 28 27 25 23 21 20 20 20 21 21 21 23 25 26 26 27 27 27 27 28 29 29 29 27 25 23 22 21 22 22 22 22 21 19 17 15 14 13 13 13 13 13 12 12 12 12 12 13 12 12 12 12 12 12 11 11 11 11 11 10 9 9 9 9 9 9 10 9 9
42 45 45 40 40 43 46 49 49 48 51 52 47 43 43 42 40 43 46 44 43 41 38 37 37 35 33 31 30 29 27 25 23 22 22 22 22 23 23 24 24 25 26 27 28 28 28 28 29 29 28 27 25 24 24 24 24 23 23 22 20 18 15 14 14 14 14 14 13 13 13 13 13 13 13 13 12 12 12 12 11 11 11 10 10 10 10 10 9 9 8 8 8 8 9 8 8
44 48 47 40 41 44 47 50 50 53 56 54 49 46 46 44 43 44 47 46 44 42 39 38 38 37 34 33 32 30 28 27 25 24 23 23 23 23 22 22 23 25 26 26 27 28 28 28 28 29 29 28 26 26 25 25 25 24 23 22 20 17 16 15 15 16 16 15 15 15 14 14 14 14 14 13 13 12 12 11 11 11 11 10 10 9 9 9 9 8 8 7 7 8 7 7 7
47 51 49 43 43 45 48 51 53 57 60 55 50 48 50 47 44 44 47 46 44 42 40 39 39 38 36 34 33 31 30 29 27 26 25 24 23 21 20 20 21 22 23 24 25 26 27 28 28 28 28 27 27 27 27 26 25 24 23 21 19 17 17 16 17 17 17 17 17 16 16 15 16 16 15 14 14 13 12 11 11 11 11 10 9 9 8 8 7 7 7 6 7 7 7 7 6
50 53 51 47 46 48 50 52 55 59 59 56 51 49 52 47 42 44 48 47 45 43 42 42 41 40 38 36 34 33 33 32 30 28 27 25 22 21 20 20 19 20 21 24 25 26 26 27 28 28 28 28 28 28 28 27 26 24 22 21 19 18 18 18 18 18 18 18 17 17 16 17 17 16 16 15 14 14 14 13 13 13 12 11 10 9 8 7 7 6 5 5 5 5 6 6 6
52 54 54 52 51 52 52 53 55 58 56 56 53 51 53 48 42 47 51 48 46 45 45 45 43 42 41 38 37 36 35 34 32 29 27 25 22 21 21 20 20 20 21 23 25 26 27 27 28 29 29 29 29 29 29 28 26 25 23 22 20 20 21 20 19 19 19 18 18 18 17 17 17 16 16 16 16 15 15 14 13 13 13 13 12 11 11 9 8 7 6 4 3 4 4 5 5
53 54 54 55 54 53 52 52 54 55 55 56 55 54 54 49 43 47 51 48 47 47 46 45 45 44 42 40 39 39 37 36 33 30 27 24 21 21 21 21 20 20 20 22 24 26 28 28 28 29 30 30 30 30 29 29 27 26 24 23 22 23 23 22 21 20 20 19 19 19 18 17 16 16 17 18 17 16 14 13 12 12 11 11 11 11 11 10 9 9 8 6 5 3 3 3 4
54 54 55 57 56 53 52 52 53 52 53 55 58 58 56 52 46 44 45 46 47 47 47 47 46 45 43 42 41 40 38 36 33 30 28 25 22 21 21 20 19 19 19 20 22 25 28 29 29 30 30 31 32 31 31 30 29 27 26 25 25 25 25 23 22 22 21 21 21 20 19 17 17 18 19 19 18 16 14 12 11 10 9 8 8 8 7 7 7 6 6 6 5 5 4 3 2
55 56 58 57 56 54 52 52 53 53 53 56 60 59 57 55 50 42 38 42 46 47 47 48 47 45 45 44 42 40 39 37 34 31 29 26 24 22 21 21 20 19 18 19 20 24 27 30 30 31 31 32 33 33 33 32 31 29 28 27 27 27 26 25 24 24 23 23 22 21 19 17 18 19 19 19 18 16 14 12 11 9 8 7 6 5 5 4 4 3 3 3 3 3 3 3 3
55 54 56 57 55 55 55 53 54 55 55 56 58 59 58 55 52 43 36 39 44 45 45 46 46 46 46 44 41 40 40 37 35 33 31 30 27 24 22 22 22 21 19 19 20 23 27 30 32 32 31 31 32 34 35 34 33 31 30 29 28 28 27 27 26 25 24 23 22 21 19 18 20 20 20 19 18 16 14 13 11 10 8 7 6 5 4 4 3 3 2 1 1 0 1 2 3
58 51 50 56 58 57 58 59 58 59 58 57 57 59 58 55 52 47 38 37 41 43 43 44 44 45 46 44 42 41 40 39 37 36 35 32 29 26 24 23 23 23 22 21 21 23 25 29 32 33 33 33 34 35 36 36 35 33 31 31 30 30 29 28 27 26 24 23 23 21 20 20 21 21 21 20 18 17 15 13 12 10 8 7 6 6 5 5 4 4 4 3 3 3 3 3 3
63 58 53 56 60 59 59 60 59 59 59 58 58 58 58 55 51 47 41 38 39 40 41 42 42 44 46 45 42 42 41 40 39 38 36 33 30 28 26 25 25 25 24 24 24 24 24 28 31 33 34 34 35 35 36 36 36 35 33 32 32 32 31 30 29 27 26 26 25 24 22 22 23 22 21 20 19 17 16 14 12 10 9 8 7 7 6 6 6 5 5 5 5 6 6 6 5
62 64 63 61 59 57 58 60 59 59 60 59 58 57 56 55 51 47 43 39 38 38 39 40 42 44 46 45 44 43 42 41 40 39 37 34 32 30 28 28 28 28 27 27 27 26 25 26 29 32 33 34 34 34 35 36 36 36 35 34 34 33 32 31 30 29 28 28 27 26 25 24 23 23 22 21 19 18 17 15 13 12 11 10 9 9 8 8 7 7 7 7 7 8 8 8 8
59 61 65 64 57 54 58 62 61 60 61 60 60 58 56 55 51 47 44 40 38 38 39 40 42 44 44 45 46 45 42 41 41 40 38 36 34 32 31 31 32 31 30 29 29 29 27 26 27 30 33 33 33 34 34 35 35 36 35 35 35 35 34 32 31 30 30 29 28 28 27 25 25 24 23 22 21 19 18 16 14 13 13 12 11 10 10 9 9 8 8 8 9 10 10 10 10
Wind_Direction
94 97 97 93 98 118 134 135 133 128 127 129 127 130 133 132 132 134 135 131 130 129 121 112 110 101 87 83 87 98 97 105 115 110 114 114 103 108 115 112 109 105 106 108 106 101 100 102 102 102 105 109 113 114 113 113 114 112 110 108 108 109 110 110 110 110 111 113 116 119 120 122 123 125 125 125 124 122 119 115 111 108 106 103 99 97 97 97 96 96 93 88 83 81 87 97 102
98 99 99 96 93 105 122 127 130 131 129 129 132 134 133 134 136 137 135 136 139 131 119 113 112 101 92 90 89 98 97 95 108 115 121 118 110 110 111 110 107 107 109 108 105 101 100 100 101 102 107 112 112 111 110 110 108 106 105 106 108 110 110 110 111 112 113 114 116 119 121 124 127 129 128 127 125 122 117 113 109 107 105 102 98 94 91 89 89 90 91 89 87 84 84 95 105
103 102 102 99 97 104 117 124 131 132 132 135 137 136 134 136 139 138 138 142 140 128 121 114 110 102 95 94 92 94 93 87 90 105 116 118 118 118 115 111 107 107 109 105 103 103 104 103 104 106 109 109 107 106 105 104 101 100 103 106 109 110 111 112 113 113 114 115 117 120 124 128 131 131 129 126 125 121 116 115 112 109 105 103 99 94 90 88 87 89 91 91 92 91 89 93 105
105 104 104 101 104 112 117 122 131 134 136 141 140 138 136 138 140 139 140 139 132 126 120 113 112 108 103 101 98 95 89 81 79 92 106 112 118 123 119 113 108 106 107 105 104 106 106 106 106 106 106 105 104 105 105 104 103 104 106 108 110 110 111 112 114 115 115 117 119 123 127 132 134 132 129 128 127 123 120 119 116 113 111 107 102 97 94 91 87 86 90 92 91 94 97 98 106
106 107 106 101 106 119 124 125 131 135 139 143 141 140 139 139 142 141 137 131 126 123 116 112 115 114 112 109 102 97 91 83 79 83 104 110 118 124 121 115 111 108 106 106 107 108 107 106 105 105 105 105 106 108 107 107 108 109 110 111 112 114 115 116 117 118 119 120 123 127 132 135 134 131 131 131 130 127 124 124 121 119 117 111 106 103 99 94 87 82 83 87 88 91 96 103 110
112 120 117 111 118 126 129 129 132 135 140 143 140 140 141 142 143 140 135 130 126 123 118 117 119 117 114 110 104 97 91 85 82 81 101 113 119 123 121 118 113 113 111 110 111 108 106 105 106 107 107 108 110 110 108 108 110 111 111 113 116 118 119 120 119 121 123 126 128 131 134 134 130 129 131 131 131 131 130 127 124 122 116 111 109 105 98 90 84 81 81 82 83 87 90 93 99
110 122 127 124 128 130 131 132 133 135 139 140 139 140 142 143 143 142 140 135 128 123 121 120 121 119 112 108 105 98 92 88 85 85 99 114 120 123 120 119 118 118 114 112 111 108 107 108 110 110 111 114 114 113 111 110 111 111 112 114 118 121 122 122 122 125 129 131 131 131 132 129 127 131 134 133 133 134 133 130 126 121 112 105 99 96 88 79 74 75 79 80 79 83 87 87 92
113 120 125 125 128 130 133 133 134 136 139 140 141 143 144 145 147 148 146 139 131 127 125 123 122 120 115 110 106 99 93 92 90 90 99 110 117 123 121 121 123 122 117 115 113 111 112 114 116 116 118 120 119 117 114 112 111 111 112 115 120 122 123 124 126 130 134 135 133 133 134 131 132 137 138 135 134 136 136 134 123 109 102 95 84 79 74 68 63 63 70 74 73 80 90 96 98
125 125 126 126 131 133 134 135 137 140 143 146 148 150 151 153 154 154 149 141 135 132 130 127 123 121 117 112 107 101 95 96 97 94 97 102 111 119 120 123 127 126 121 119 118 116 118 121 122 122 125 123 120 119 116 112 111 110 111 115 119 121 121 124 128 132 136 138 139 140 140 139 139 140 137 133 133 137 136 127 108 95 89 81 69 63 62 65 68 66 65 72 75 80 89 94 90
135 134 135 133 134 135 136 140 143 147 150 153 155 156 158 158 157 154 147 138 133 129 128 127 124 124 123 117 111 105 99 98 99 98 98 97 105 114 118 122 128 128 125 123 122 122 123 126 127 128 127 122 118 118 115 113 110 109 109 111 112 114 117 122 127 133 136 139 141 142 143 143 142 137 133 128 127 130 123 111 103 101 91 77 70 66 65 72 78 76 71 73 77 80 85 89 88
142 143 145 138 137 138 140 145 148 151 156 159 159 159 158 157 158 153 142 135 131 125 120 121 121 124 124 121 119 113 106 101 99 100 102 96 101 112 119 122 126 126 126 126 125 126 128 130 131 129 125 119 117 115 114 113 111 109 108 108 107 108 113 118 123 130 135 139 141 143 144 143 140 135 131 124 123 124 119 117 111 93 88 87 87 81 75 74 77 79 76 77 84 91 101 113 108
148 151 151 144 142 144 145 149 152 155 158 161 161 158 156 158 159 152 143 135 128 124 118 116 119 126 128 126 127 121 112 107 102 101 102 98 100 110 119 125 126 126 127 127 128 130 132 133 132 128 123 119 118 116 116 114 112 111 110 109 109 109 110 112 115 120 126 132 137 139 139 139 136 132 130 125 125 128 122 114 94 78 78 84 87 85 81 79 81 84 86 89 96 102 106 117 123
155 160 158 152 151 151 151 153 156 160 161 162 162 160 161 163 161 157 151 143 136 129 120 117 121 130 128 126 132 127 117 114 111 106 103 100 103 111 120 125 127 129 129 129 131 133 134 134 132 127 124 123 122 120 120 116 114 115 113 113 112 111 111 110 112 114 117 122 127 130 132 133 131 129 126 123 123 119 111 103 94 87 86 85 86 87 87 84 84 85 89 94 100 106 107 112 120
163 169 167 163 158 155 155 157 162 164 164 165 165 164 166 167 164 162 154 153 150 138 130 129 134 133 125 123 134 133 122 122 119 114 107 102 105 112 120 126 127 130 132 131 132 133 134 133 131 128 127 127 126 123 122 119 118 119 117 117 116 114 113 113 114 116 117 119 122 125 128 128 126 124 121 120 118 111 105 101 97 94 92 89 89 89 89 87 86 87 89 91 94 98 100 104 110
170 174 171 168 162 158 158 161 165 166 165 166 170 171 171 172 168 161 152 157 157 146 145 145 147 144 136 130 129 136 129 130 128 123 116 110 110 115 121 127 128 130 133 133 132 132 132 132 130 129 130 130 129 128 126 123 123 123 123 122 121 118 116 115 116 117 119 122 124 125 125 123 122 121 119 116 113 108 105 103 100 98 95 93 91 89 88 86 86 88 89 92 93 93 93 95 101
173 174 171 170 166 163 163 165 167 170 170 173 177 177 177 177 169 163 161 164 160 157 162 160 158 153 147 137 128 133 144 141 138 131 125 119 119 120 121 127 130 130 132 132 131 130 131 132 131 130 131 131 131 131 130 130 131 130 128 127 125 122 118 117 119 121 124 125 126 126 124 122 121 118 116 112 107 104 103 102 102 101 99 96 93 92 90 90 90 90 91 94 96 97 97 98 100
176 176 173 171 171 170 170 171 173 176 177 184 185 182 184 185 178 176 177 174 168 169 176 177 172 159 158 148 130 129 163 156 148 140 133 127 127 128 126 130 133 132 131 131 129 129 132 132 131 131 132 131 132 133 133 136 136 134 134 131 128 124 121 122 124 126 128 127 127 125 123 121 118 115 112 109 107 105 103 103 103 103 101 98 94 94 94 96 97 96 97 99 102 106 107 108 106
182 182 179 176 179 180 181 182 181 178 180 188 191 191 194 194 191 188 182 174 174 181 181 182 186 170 168 162 138 134 159 172 159 147 140 133 134 137 134 136 139 137 135 133 131 130 133 132 131 132 131 131 132 134 137 139 137 138 137 133 129 126 125 126 128 130 129 127 125 123 122 119 117 116 113 111 110 107 104 103 101 100 98 96 95 95 96 99 102 103 103 102 103 105 107 107 103
190 192 189 184 186 190 190 188 184 177 179 188 191 197 199 194 190 183 169 163 174 186 183 175 184 183 173 169 150 141 149 175 171 155 143 135 138 142 140 142 145 143 139 137 134 132 134 132 131 132 130 131 133 136 139 138 138 140 137 133 130 128 127 128 130 130 128 126 125 124 122 120 119 117 115 113 109 105 103 101 97 94 92 93 98 100 100 100 99 98 98 94 91 92 95 97 99
197 198 198 192 188 195 194 189 186 179 181 189 192 198 202 198 183 172 166 168 174 176 173 163 168 193 179 174 170 151 149 165 181 161 142 133 138 143 144 147 150 148 144 139 136 135 135 134 132 132 131 132 134 136 137 136 138 140 136 132 130 128 127 129 131 130 128 127 126 124 122 120 119 118 116 113 108 104 101 98 94 90 87 89 98 104 105 106 104 100 97 97 97 96 96 97 102
203 202 201 195 188 198 200 191 188 187 188 190 194 201 210 215 198 184 178 174 170 160 153 148 148 173 191 190 194 172 158 161 181 169 147 138 139 142 141 145 151 152 147 141 138 137 137 136 134 133 132 132 133 135 135 135 138 138 134 132 130 129 129 131 133 131 130 129 127 124 122 120 120 118 115 112 108 104 99 96 92 88 85 85 90 95 98 104 108 105 103 103 101 96 94 94 95
209 206 203 198 189 197 206 202 197 196 195 193 196 205 220 232 221 205 191 179 169 164 157 148 152 162 172 191 200 194 173 163 177 176 154 145 145 144 142 143 154 156 150 144 141 140 139 138 135 134 134 133 133 135 135 136 137 135 133 131 130 130 131 135 135 132 130 129 126 124 123 122 119 116 112 109 106 103 101 98 93 89 86 83 82 84 88 92 93 93 94 95 93 89 86 86 87
211 209 205 200 193 196 204 211 207 199 198 197 199 207 219 234 240 230 206 188 173 168 165 158 162 171 176 182 184 196 190 172 175 180 162 154 153 151 151 151 157 159 153 147 144 144 143 141 138 137 136 134 135 136 136 138 136 133 132 131 131 132 134 136 135 132 131 130 127 125 123 121 118 115 111 109 107 105 102 98 94 91 88 84 82 84 87 88 86 85 85 88 90 90 88 87 89
213 212 208 202 198 199 199 207 210 202 199 201 202 205 211 228 249 245 209 192 183 171 169 167 164 177 185 184 178 181 202 185 175 180 170 162 159 156 156 153 155 159 156 150 148 148 147 145 142 140 139 137 136 136 136 137 135 132 132 132 133 135 136 136 136 133 131 129 126 124 121 118 117 115 112 109 107 104 101 97 93 89 86 84 82 80 81 81 83 83 82 86 87 87 89 92 95
216 216 213 207 202 202 199 200 207 207 202 202 200 198 205 225 255 253 215 197 195 177 171 177 170 176 186 187 181 170 184 187 173 172 168 162 160 156 155 153 155 161 160 155 151 151 151 149 145 142 141 139 138 137 137 136 134 133 134 135 135 136 138 137 136 133 130 128 127 124 121 118 117 117 115 112 107 104 101 98 94 91 90 88 87 84 82 78 79 82 81 81 81 80 80 86 96
217 218 216 213 206 203 202 198 203 209 206 203 196 191 199 222 252 252 232 208 196 182 177 181 173 176 183 184 184 170 173 183 176 173 169 164 162 158 157 158 160 163 162 157 154 154 154 152 148 145 143 142 140 138 137 137 136 136 136 137 138 139 139 138 135 132 131 132 132 130 126 123 122 121 120 116 111 107 105 103 99 98 95 94 93 91 90 87 85 83 78 73 71 74 78 84 95
218 219 217 218 212 206 204 198 200 206 207 202 194 192 195 212 243 251 251 228 200 190 185 183 175 175 181 181 183 173 173 184 183 179 175 171 167 162 160 161 161 164 163 160 157 157 157 154 151 148 147 145 143 141 139 140 139 138 138 138 140 142 141 138 135 133 135 136 136 135 130 127 126 124 122 118 113 111 111 110 108 104 98 96 91 86 91 92 88 80 71 69 71 76 81 86 93
217 218 215 217 214 207 204 199 197 203 206 202 196 196 197 204 231 247 256 239 212 199 192 188 183 181 181 180 183 178 173 181 188 188 185 180 173 168 165 162 162 165 165 163 161 161 160 157 154 151 149 147 145 145 143 143 142 141 140 141 142 143 142 139 137 138 139 139 137 135 132 130 128 126 123 120 116 116 118 117 114 109 103 97 87 90 98 95 87 79 74 75 78 80 82 86 95
216 216 212 214 213 207 203 199 197 202 207 204 200 199 201 204 216 235 246 236 219 205 196 194 195 191 184 180 183 183 179 181 188 192 191 189 183 176 170 167 166 166 166 165 164 163 162 160 157 154 151 150 148 148 148 146 146 144 142 142 144 144 143 142 142 143 143 141 139 137 135 132 130 128 125 122 120 121 123 122 119 112 106 99 92 100 105 98 90 84 82 83 82 81 82 87 97
216 214 209 209 208 205 203 200 197 201 207 206 203 202 208 209 205 217 231 230 222 208 199 199 202 198 188 185 184 183 184 184 186 189 189 191 189 182 175 173 169 166 166 167 165 165 165 163 160 157 153 152 152 151 151 150 149 147 145 144 144 144 144 144 145 146 146 143 141 138 136 133 129 126 123 121 119 121 123 124 121 113 107 97 95 105 107 99 93 87 86 86 84 83 84 91 99
219 215 209 204 204 204 203 202 197 200 206 208 204 203 216 216 206 209 217 220 217 207 204 204 203 199 193 192 189 185 185 184 185 187 189 188 185 181 179 177 171 168 169 169 167 167 167 166 164 161 157 155 155 154 153 152 152 150 148 146 145 145 145 146 147 148 147 144 141 138 134 129 126 122 120 119 119 121 124 125 122 113 107 96 97 109 110 102 95 89 88 88 86 87 90 96 100
221 220 211 202 201 203 205 204 200 202 207 209 206 206 216 219 213 208 207 212 212 205 205 206 204 201 199 200 194 190 188 184 184 188 191 188 183 180 180 177 174 175 173 170 169 169 169 168 167 165 162 161 158 156 154 154 154 151 151 150 148 147 147 149 150 148 146 143 140 136 131 127 123 120 118 118 119 121 124 126 122 114 108 98 100 112 114 106 97 91 90 89 89 92 95 98 101
221 224 216 205 201 203 208 207 204 205 207 208 207 212 219 220 215 205 200 211 213 207 206 205 203 201 200 205 200 192 188 186 185 188 189 189 188 184 180 177 178 180 175 172 172 172 172 170 168 167 166 165 160 157 156 155 155 155 154 153 152 152 151 153 151 149 146 142 138 134 131 127 124 122 120 121 123 124 125 125 122 115 107 100 102 112 115 109 101 96 92 90 92 95 97 99 101
222 225 221 211 203 204 210 209 206 206 208 208 205 214 222 218 212 202 199 213 215 211 208 204 203 201 198 200 202 196 191 189 190 190 187 186 190 188 184 180 179 181 177 175 175 174 174 172 169 169 168 166 163 160 158 157 157 158 158 157 157 157 156 155 153 150 147 143 138 134 131 128 126 124 124 125 126 126 126 124 120 113 106 103 105 112 115 112 106 101 95 93 94 95 97 99 100
225 226 224 217 205 206 212 211 207 207 209 208 203 212 216 209 206 200 200 213 217 213 209 206 205 202 198 195 199 201 197 194 193 194 190 186 189 189 187 184 180 179 177 179 180 176 176 174 171 169 169 167 164 162 160 158 159 162 162 161 163 164 161 158 156 153 148 144 140 136 134 131 129 129 129 130 130 130 129 126 122 115 109 107 107 111 115 117 114 107 102 99 97 96 97 98 99
225 225 226 224 212 210 216 216 211 209 211 209 204 213 215 207 206 204 207 216 218 216 212 210 208 204 202 197 197 203 204 202 198 197 193 188 188 187 187 187 183 180 178 180 181 179 177 177 175 171 170 169 165 164 163 161 163 166 168 169 169 169 165 161 159 155 150 146 143 140 138 136 135 136 135 134 134 133 132 130 126 120 116 112 110 110 115 120 119 114 109 103 99 97 97 97 99
226 225 227 227 220 216 220 222 220 215 215 212 206 215 220 215 208 206 214 219 219 220 216 213 212 207 204 199 197 202 209 210 204 199 194 190 188 186 185 187 186 182 180 179 180 181 179 177 178 175 172 171 167 167 169 169 171 173 175 177 175 172 168 164 161 156 152 149 146 144 143 143 142 142 140 137 137 137 136 133 128 124 120 116 113 113 117 120 122 121 117 111 104 101 100 99 99
225 226 227 227 226 223 223 224 223 219 219 216 210 214 221 222 214 209 212 217 220 222 220 218 216 211 207 204 200 199 204 206 202 197 193 189 187 185 185 187 187 184 182 181 179 180 180 178 179 177 175 173 173 174 175 176 178 179 180 180 178 174 170 166 162 158 155 152 150 149 149 149 147 146 144 140 140 141 139 135 130 125 122 118 116 118 122 125 128 131 131 127 120 112 107 105 104
221 223 225 225 226 226 227 227 224 222 222 218 215 214 218 221 219 215 212 211 216 221 221 220 218 215 213 209 202 195 195 197 195 193 189 186 184 184 184 185 185 186 186 184 181 179 179 180 179 177 178 178 178 180 181 182 183 182 180 179 178 176 170 167 164 161 159 157 156 156 156 155 152 149 147 144 143 145 143 139 133 128 125 122 120 122 124 127 130 134 137 136 132 125 118 113 111
219 220 220 222 223 224 228 231 228 225 224 220 218 215 215 219 219 218 215 209 211 217 220 219 219 219 219 215 208 200 199 199 195 192 188 184 181 182 183 183 184 185 187 187 184 180 179 181 179 177 181 182 182 185 186 186 184 179 176 175 175 174 171 169 168 167 166 164 163 162 160 157 153 150 149 148 147 149 148 143 137 132 129 127 124 123 123 124 126 129 133 136 134 130 125 121 118
220 220 218 219 221 222 226 231 229 227 225 220 219 218 215 218 221 220 218 213 210 213 217 218 219 221 223 222 217 212 210 209 203 195 190 184 181 181 182 182 182 182 185 187 186 183 182 181 180 180 183 184 186 187 188 186 182 177 174 172 170 171 173 174 176 175 173 171 167 164 161 157 154 151 151 149 147 151 152 148 143 138 135 132 127 124 123 123 123 125 128 131 132 131 129 128 126
222 222 220 219 220 220 222 230 231 230 230 226 223 222 215 215 221 220 219 218 213 210 214 217 218 220 224 225 221 218 216 215 212 205 197 190 185 182 180 181 181 181 184 185 187 187 185 183 182 183 183 185 188 188 186 183 179 177 176 174 173 173 177 181 182 181 176 172 167 164 161 159 157 154 153 150 149 153 156 153 149 144 142 137 132 128 126 126 125 125 129 131 133 134 135 136 133
220 221 221 220 220 219 219 227 231 231 234 233 228 223 214 213 219 220 218 219 215 210 211 214 218 220 222 223 222 221 219 218 218 214 205 195 188 184 181 181 182 182 183 185 188 190 188 186 185 185 184 185 187 186 183 180 176 177 179 179 178 179 182 184 184 180 175 170 168 167 165 164 162 158 156 153 152 156 158 158 154 151 149 146 142 138 134 134 133 131 132 135 138 140 142 143 141
218 219 220 220 220 219 217 221 228 228 229 233 229 222 215 213 214 216 217 217 216 212 208 211 218 220 220 222 221 221 219 219 219 214 206 196 190 188 184 184 186 186 185 185 189 192 191 190 189 188 186 185 185 182 179 178 176 178 181 182 183 186 187 186 183 178 173 171 171 170 170 169 166 161 159 156 156 159 160 160 158 156 156 154 152 150 147 147 144 141 141 142 143 145 148 151 151
218 219 220 220 220 219 216 217 222 224 226 230 230 223 218 214 210 214 217 215 214 212 207 209 216 218 218 220 220 219 219 218 217 213 210 204 194 190 187 187 190 189 187 186 188 191 193 193 193 190 188 186 182 178 178 179 180 181 183 184 187 190 190 187 183 177 174 176 175 173 173 171 166 161 159 157 157 160 161 161 159 158 159 159 159 158 157 158 156 154 155 154 151 150 153 156 159
217 219 220 218 220 219 217 217 218 221 223 225 227 227 223 214 207 213 218 215 213 212 208 208 212 215 216 217 218 218 218 217 215 214 214 211 202 196 193 190 189 191 192 191 190 191 193 195 195 193 190 187 181 178 180 182 184 186 186 187 190 191 188 185 182 179 178 180 179 178 177 172 166 161 159 157 156 159 161 160 159 159 159 160 162 162 162 164 164 164 166 167 165 161 159 161 164
216 219 218 215 218 218 217 217 217 221 223 220 219 225 227 216 205 210 216 215 213 211 209 207 210 212 214 215 217 218 219 217 214 213 213 215 212 206 199 193 190 191 194 195 194 193 193 195 197 196 193 188 182 180 183 186 189 189 189 190 192 189 185 182 181 181 181 182 182 181 178 173 166 163 160 157 155 155 156 156 155 155 155 157 159 160 162 165 167 169 172 176 176 173 171 170 171
216 219 216 214 217 218 217 217 216 221 225 222 216 220 227 217 201 207 215 214 213 211 209 208 208 211 213 214 216 217 217 216 214 212 213 217 218 212 204 199 195 194 195 196 197 196 195 195 197 199 196 190 185 184 186 190 192 192 192 192 191 187 183 182 183 183 184 184 184 181 178 173 168 165 161 157 153 150 148 146 143 142 143 148 152 153 155 158 161 166 174 181 186 184 183 182 183
216 218 216 214 216 218 218 217 217 221 225 226 219 217 225 218 197 204 214 212 212 211 208 208 207 209 212 213 215 215 215 216 214 212 214 218 219 213 209 205 199 196 195 196 197 198 197 197 197 199 199 195 190 187 189 192 193 193 193 193 189 185 184 185 185 185 185 186 184 182 180 177 172 168 162 155 149 144 138 133 128 125 125 127 131 134 136 140 144 151 162 178 192 193 191 191 194
216 218 217 215 216 218 219 218 219 221 223 228 225 220 225 221 201 203 212 211 210 210 209 209 207 208 211 212 213 214 215 215 214 214 216 219 218 215 215 212 205 200 198 197 197 197 197 197 198 198 199 198 195 193 192 193 194 194 194 192 187 184 186 188 187 186 187 186 185 184 183 180 176 168 160 153 147 142 138 131 125 120 117 114 113 112 113 115 119 122 127 141 164 183 190 194 197
216 218 218 218 217 219 220 221 222 222 222 227 229 224 226 225 210 205 210 210 208 210 211 210 209 210 210 211 213 214 215 216 215 215 216 218 218 218 221 220 215 210 205 201 199 198 197 197 198 199 199 198 198 198 197 196 195 195 193 190 187 186 188 190 189 188 188 188 187 187 186 182 176 167 159 155 152 148 145 140 134 127 122 118 113 109 106 105 106 107 107 108 111 124 150 179 196
216 216 218 219 219 219 220 222 223 222 221 225 229 227 227 228 220 209 207 208 209 209 210 211 211 211 211 211 213 215 216 216 216 215 215 216 216 219 225 228 226 223 216 209 203 200 199 198 198 200 200 199 199 199 200 200 199 195 193 190 189 190 191 191 191 191 191 192 191 190 188 182 174 167 162 160 159 158 155 152 148 143 138 133 127 121 116 111 107 104 103 99 96 97 105 125 161
216 216 218 219 219 219 221 223 225 224 221 224 229 229 227 228 226 215 203 205 210 210 210 212 212 212 212 213 213 215 217 217 216 215 215 215 214 217 225 229 232 233 228 219 210 204 201 200 199 200 201 201 201 200 201 203 203 198 193 191 191 193 194 193 193 194 195 195 195 194 191 181 173 169 168 167 167 167 166 165 164 163 160 156 152 148 143 139 134 127 115 101 92 87 87 91 92
215 217 218 219 220 219 220 221 224 224 222 224 229 231 230 229 228 223 207 201 209 212 211 212 212 212 215 215 213 214 216 218 217 215 215 216 214 214 220 226 229 231 230 225 218 209 205 203 202 201 200 201 202 202 203 205 205 202 195 192 193 196 196 196 195 196 196 197 197 197 192 183 177 175 175 176 176 177 177 177 179 181 180 179 178 177 176 177 183 192 207 234 273 338 37 49 56
215 217 216 218 219 219 220 219 220 222 221 224 229 230 230 229 228 226 214 199 205 212 211 212 213 214 216 217 214 214 216 217 217 216 216 217 218 218 221 227 229 230 231 231 226 218 210 207 205 203 201 201 203 204 205 206 207 205 200 194 194 197 199 198 198 197 197 198 199 198 195 189 184 183 184 185 185 186 187 189 191 195 197 199 202 205 205 207 211 220 232 248 263 273 284 306 336
214 216 216 217 218 219 221 220 220 222 222 224 230 229 228 228 226 224 216 200 201 210 210 211 212 214 218 217 215 214 215 217 218 219 220 220 222 223 223 226 230 231 231 231 231 225 217 211 209 206 205 204 205 206 207 208 209 208 204 199 197 199 201 200 199 198 198 200 200 200 199 195 191 190 192 193 193 193 196 199 202 208 213 217 220 223 223 223 225 231 239 248 255 263 271 279 292
215 217 218 217 217 217 220 221 220 222 223 225 230 230 228 229 224 222 218 204 200 208 211 210 209 213 217 216 215 215 215 217 219 220 222 222 224 225 225 225 228 229 228 228 230 228 222 216 212 210 209 208 207 208 209 211 212 212 209 205 202 201 202 203 201 199 199 200 201 201 201 198 195 195 197 199 200 202 204 207 211 218 224 229 231 229 228 229 231 233 238 246 251 256 262 268 274
214 216 218 219 219 218 218 219 218 220 223 226 230 230 230 230 223 219 220 211 202 206 210 209 209 212 215 214 214 215 215 216 218 219 222 223 224 224 224 225 227 229 228 228 230 230 226 221 216 213 212 210 210 210 210 212 214 215 214 212 207 205 205 205 203 201 201 201 202 203 204 201 198 199 201 203 206 208 211 214 218 223 229 233 233 231 228 227 230 232 235 242 248 252 256 259 263